Location: Estes Par
(40.3770°N, 105.5210°W)
Time: 17:01:54
(UTC-06:00)

ISS - Pass Details

Date: 16 October 2017
Orbit: 401 x 408 km, 51.6° (Epoch: 23 October)

Event Time Altitude Azimuth Distance (km) Brightness Sun altitude
Rises 18:49:34 0° 303° (WNW) 2,317 0.9 -6.4°
Reaches altitude 10° 18:51:40 10° 299° (WNW) 1,456 -0.1 -6.8°
Maximum altitude 18:54:52 56° 221° (SW) 486 -3.1 -7.4°
Drops below altitude 10° 18:58:04 10° 142° (SE) 1,451 -1.3 -8.0°
Sets 19:00:10 0° 138° (SE) 2,308 -0.4 -8.4°
Enters shadow 19:00:10 - 138° (SE) 2,312 -0.4 -8.4°
